Volver al catálogo

STARLINK-34531

ActivoComunicacionesVLEO
NORAD 64750·PAYLOAD·🇺🇸 United States

Lanzado Jul 2, 2025 desde Cape Canaveral Space Force Station

Loading…

Próximos Pases (próximas 24 horas)

TLE

ActualizadoSource: CelesTrak SupGP

Época: Sep 15, 2026, 02:42 UTC

1 64750C 25144AC  26258.11298611  .00035442  00000+0  10472-2 0  2581
2 64750  53.1609  18.6090 0001153  90.1155 131.1481 15.34370380    17

Sigue STARLINK-34531 en tiempo real con AllMySat

Download on the App Store